2024-168C (61187 NORAD) Tracking and Keplerian Element Data

This shows tracking and keplerian element data for the satellite.

Feedback or suggestion? Click here.




ElementValue
Catalog61187
Name2024-168C
Epoch Orbit42
Epoch Day285.62790295
Epoch Year2024
RAAN323.4525
Inclination54.983
Eccentricity0.0066441
Argument of Perigee180.2326
Mean Anonmoly263.5801
Mean Motion1.84329342
Decay Rate-3.6E-07
L11 61187U 24168C 24285.62790295 -.00000036 00000+0 00000+0 0 9993
L22 61187 54.9830 323.4525 0066441 180.2326 263.5801 1.84329342 428



Live tracking and technical data element details for 2024-168C (NORAD 61187). 2024-168C can be tracked NOW for your location showing map with azimuth and elevation plus other details from your city location.







IsCatalogInMostPopularTable: catalog: 61187, numindb: 21
Update: records affected: 1



GetName: 61187 2024-168C

Hit Count: updated at: Fri, 06 Dec 2024 12:06:15 GMT